Arbor Vitae, WI

2:23 PM CDT on April 28, 2017 (GMT -0500)
Lakeland-Lee Memorial

Weather History for KARV - March, 2014

Change the Weather History Date:

Monday, March 31, 2014

  Actual Average Record
Temperature  
Mean Temperature 44 °F -  
Max Temperature 51 °F 42 °F 68 °F (1963)
Min Temperature 37 °F 21 °F -21 °F (1923)
Degree Days  
Heating Degree Days 21    
Moisture  
Dew Point 34 °F    
Average Humidity 66    
Maximum Humidity 81    
Minimum Humidity 49    
Precipitation  
Precipitation 0.00 in - - ()
Sea Level Pressure  
Sea Level Pressure 29.74 in    
Wind  
Wind Speed 8 mph (SE)    
Max Wind Speed 15 mph    
Max Gust Speed 24 mph    
Visibility 10 miles    
Events Rain , Thunderstorm    
Averages and records for this station are not official NWS values.
T = Trace of Precipitation, MM = Missing Value Source: NWS Daily Summary

Daily Weather History Graph

Daily Weather History Graph

Search for Another Location

Airport or City:

Trip Planner

Search our weather history database for the weather conditions in past years. The results will help you decide how hot, cold, wet, or windy it might be!

Date:

Astronomy

Mar. 31, 2014 Rise Set
Actual Time 6:40 AM CDT 7:26 PM CDT
Civil Twilight 6:10 AM CDT 7:56 PM CDT
Nautical Twilight 5:34 AM CDT 8:32 PM CDT
Astronomical Twilight 4:57 AM CDT 9:09 PM CDT
Moon 7:01 AM CDT (3/31) 8:50 PM CDT (3/31)
Length of Visible Light 13h 45m
Length of Day
12h 45m
New Moon, 1% of the Moon is Illuminated
Mar 31
New Moon
Apr 7
First Quarter
Apr 15
Full
Apr 22
Last Quarter
Apr 29
New

Hourly Weather History & Observations

Time (CDT) Temp. Windchill Dew Point Humidity Pressure Visibility Wind Dir Wind Speed Gust Speed Precip Events Conditions
12:15 AM 39.7 °F 36.5 °F 30.2 °F 69% 29.95 in 10.0 mi ESE 4.6 mph - N/A   Clear
12:35 AM 41.5 °F 38.6 °F 32.0 °F 69% 29.94 in 10.0 mi ESE 4.6 mph - N/A   Clear
12:55 AM 39.2 °F 35.9 °F 30.9 °F 72% 29.94 in 10.0 mi ESE 4.6 mph - N/A   Clear
1:15 AM 39.2 °F 35.9 °F 31.1 °F 73% 29.94 in 10.0 mi ESE 4.6 mph - N/A   Clear
1:35 AM 39.2 °F 35.9 °F 31.6 °F 74% 29.94 in 10.0 mi ESE 4.6 mph - N/A   Clear
1:55 AM 39.2 °F 35.9 °F 32.0 °F 75% 29.93 in 10.0 mi ESE 4.6 mph - N/A   Clear
2:15 AM 39.2 °F 35.9 °F 32.0 °F 75% 29.93 in 10.0 mi ESE 4.6 mph - N/A   Clear
2:35 AM 39.2 °F 35.0 °F 32.0 °F 75% 29.93 in 10.0 mi ESE 5.8 mph - N/A   Clear
2:55 AM 39.2 °F 35.9 °F 32.9 °F 78% 29.92 in 10.0 mi ESE 4.6 mph - N/A   Scattered Clouds
3:15 AM 39.2 °F 35.0 °F 33.1 °F 79% 29.91 in 10.0 mi ESE 5.8 mph - N/A   Scattered Clouds
3:35 AM 37.8 °F 33.3 °F 32.2 °F 80% 29.91 in 10.0 mi ESE 5.8 mph - N/A   Clear
3:55 AM 37.8 °F 32.5 °F 32.5 °F 81% 29.90 in 10.0 mi SE 6.9 mph - N/A   Mostly Cloudy
4:15 AM 39.2 °F 35.0 °F 33.8 °F 81% 29.90 in 10.0 mi ESE 5.8 mph - N/A   Overcast
4:35 AM 39.2 °F 35.0 °F 33.8 °F 81% 29.90 in 10.0 mi SE 5.8 mph - N/A   Overcast
4:55 AM 39.2 °F 35.0 °F 33.4 °F 80% 29.90 in 10.0 mi ESE 5.8 mph - N/A   Overcast
5:15 AM 39.2 °F 33.6 °F 33.1 °F 79% 29.89 in 10.0 mi SE 8.1 mph - N/A   Overcast
5:35 AM 41.5 °F 36.4 °F 35.1 °F 78% 29.89 in 10.0 mi SE 8.1 mph - N/A   Overcast
5:55 AM 41.5 °F 36.4 °F 35.1 °F 78% 29.88 in 10.0 mi ESE 8.1 mph - N/A   Overcast
6:15 AM 41.5 °F 37.1 °F 35.1 °F 78% 29.88 in 10.0 mi ESE 6.9 mph - N/A   Overcast
6:35 AM 41.5 °F 37.1 °F 35.6 °F 79% 29.88 in 10.0 mi ESE 6.9 mph - N/A   Overcast
6:55 AM 41.5 °F 36.4 °F 35.6 °F 79% 29.88 in 10.0 mi SE 8.1 mph - N/A   Overcast
7:15 AM 41.5 °F 35.9 °F 35.4 °F 79% 29.88 in 10.0 mi SE 9.2 mph - N/A   Overcast
7:35 AM 41.5 °F 35.4 °F 35.1 °F 78% 29.87 in 10.0 mi SE 10.4 mph - N/A   Overcast
7:55 AM 41.5 °F 35.9 °F 34.9 °F 77% 29.86 in 10.0 mi SE 9.2 mph 18.4 mph N/A   Overcast
8:15 AM 41.5 °F 35.0 °F 34.3 °F 76% 29.85 in 10.0 mi SE 11.5 mph - N/A   Mostly Cloudy
8:35 AM 41.5 °F 35.4 °F 34.0 °F 75% 29.84 in 10.0 mi SE 10.4 mph 16.1 mph N/A   Scattered Clouds
8:55 AM 42.1 °F 35.7 °F 34.3 °F 74% 29.85 in 10.0 mi SE 11.5 mph 16.1 mph N/A   Scattered Clouds
9:15 AM 42.8 °F 37.5 °F 34.0 °F 71% 29.85 in 10.0 mi SE 9.2 mph - N/A   Clear
9:35 AM 44.1 °F 37.4 °F 34.0 °F 68% 29.84 in 10.0 mi SE 13.8 mph - N/A   Scattered Clouds
9:55 AM 44.1 °F 38.6 °F 34.0 °F 68% 29.84 in 10.0 mi SE 10.4 mph - N/A   Mostly Cloudy
10:20 AM 44.6 °F 40.2 °F 33.4 °F 65% 29.83 in 10.0 mi SE 8.1 mph - N/A   Overcast
10:35 AM 45.1 °F 40.3 °F 33.4 °F 64% 29.83 in 10.0 mi SE 9.2 mph - N/A   Mostly Cloudy
10:55 AM 45.5 °F 40.3 °F 33.3 °F 62% 29.81 in 10.0 mi SE 10.4 mph - N/A   Scattered Clouds
11:15 AM 46.9 °F - 33.4 °F 59% 29.80 in 10.0 mi SE 6.9 mph - N/A   Scattered Clouds
11:35 AM 49.3 °F - 34.7 °F 57% 29.79 in 10.0 mi SE 10.4 mph - N/A   Clear
11:55 AM 49.3 °F - 34.3 °F 56% 29.78 in 10.0 mi SE 10.4 mph - N/A   Scattered Clouds
12:15 PM 50.2 °F - 34.7 °F 55% 29.76 in 10.0 mi SE 8.1 mph - N/A   Mostly Cloudy
12:35 PM 51.8 °F - 35.6 °F 54% 29.74 in 10.0 mi SE 12.7 mph 21.9 mph N/A   Scattered Clouds
12:55 PM 51.8 °F - 35.6 °F 54% 29.73 in 10.0 mi ESE 12.7 mph 16.1 mph N/A   Scattered Clouds
1:15 PM 51.8 °F - 34.7 °F 52% 29.73 in 10.0 mi SE 11.5 mph 17.3 mph N/A   Mostly Cloudy
1:35 PM 51.8 °F - 34.3 °F 51% 29.74 in 10.0 mi SSE 10.4 mph 17.3 mph N/A   Overcast
1:55 PM 51.8 °F - 32.9 °F 49% 29.73 in 10.0 mi SSE 10.4 mph - N/A   Mostly Cloudy
2:15 PM 51.8 °F - 32.9 °F 49% 29.72 in 10.0 mi SSE 12.7 mph - N/A   Scattered Clouds
2:35 PM 51.8 °F - 33.1 °F 49% 29.70 in 10.0 mi SE 8.1 mph - N/A   Mostly Cloudy
2:55 PM 51.8 °F - 33.4 °F 50% 29.68 in 10.0 mi SSE 12.7 mph 20.7 mph N/A   Mostly Cloudy
3:15 PM 50.9 °F - 34.7 °F 54% 29.67 in 10.0 mi SSE 10.4 mph 18.4 mph N/A   Light Drizzle
3:35 PM 51.8 °F - 35.6 °F 54% 29.64 in 10.0 mi SE 11.5 mph 20.7 mph N/A   Overcast
3:55 PM 50.7 °F - 35.2 °F 55% 29.63 in 10.0 mi SSE 11.5 mph 16.1 mph N/A   Overcast
4:15 PM 51.8 °F - 36.0 °F 55% 29.63 in 10.0 mi SSE 9.2 mph 18.4 mph N/A   Overcast
4:35 PM 51.8 °F - 35.6 °F 54% 29.62 in 10.0 mi SE 11.5 mph 20.7 mph N/A   Overcast
4:55 PM 51.8 °F - 34.7 °F 52% 29.60 in 10.0 mi SSE 13.8 mph 18.4 mph N/A   Scattered Clouds
5:15 PM 51.8 °F - 35.6 °F 54% 29.60 in 10.0 mi SE 12.7 mph 17.3 mph N/A Thunderstorm Scattered Clouds
5:35 PM 49.8 °F - 34.2 °F 55% 29.59 in 10.0 mi SE 15.0 mph 20.7 mph N/A Rain , Thunderstorm Light Thunderstorms and Rain
5:55 PM 44.8 °F 39.0 °F 35.4 °F 70% 29.59 in 10.0 mi SE 11.5 mph 18.4 mph N/A Thunderstorm Mostly Cloudy
6:15 PM 45.5 °F 38.9 °F 33.8 °F 64% 29.57 in 10.0 mi SE 15.0 mph 23.0 mph N/A Thunderstorm Overcast
6:35 PM 44.8 °F 38.7 °F 32.4 °F 62% 29.58 in 10.0 mi SE 12.7 mph 24.2 mph N/A   Overcast
6:55 PM 44.1 °F 37.7 °F 32.0 °F 63% 29.58 in 10.0 mi SE 12.7 mph 21.9 mph N/A   Overcast
7:15 PM 44.1 °F 38.6 °F 32.0 °F 63% 29.57 in 10.0 mi SE 10.4 mph 18.4 mph N/A   Overcast
7:35 PM 43.7 °F 38.1 °F 31.8 °F 63% 29.57 in 10.0 mi SE 10.4 mph - N/A   Overcast
7:55 PM 43.3 °F 38.1 °F 31.5 °F 63% 29.57 in 10.0 mi SE 9.2 mph - N/A   Overcast
8:15 PM 44.1 °F 39.0 °F 31.8 °F 62% 29.56 in 10.0 mi SE 9.2 mph 16.1 mph N/A   Overcast
8:35 PM 44.1 °F 38.6 °F 31.6 °F 62% 29.55 in 10.0 mi SE 10.4 mph 17.3 mph N/A Thunderstorm Overcast
8:55 PM 44.1 °F 38.6 °F 31.5 °F 61% 29.55 in 10.0 mi SE 10.4 mph 17.3 mph N/A Thunderstorm Scattered Clouds
9:15 PM 44.1 °F 38.6 °F 31.6 °F 62% 29.55 in 10.0 mi SE 10.4 mph 16.1 mph N/A   Clear
9:35 PM 44.1 °F 39.0 °F 32.0 °F 63% 29.55 in 10.0 mi SE 9.2 mph - N/A   Clear
9:55 PM 44.2 °F 38.8 °F 32.0 °F 62% 29.54 in 10.0 mi SSE 10.4 mph - N/A Thunderstorm Clear
10:15 PM 45.1 °F 39.9 °F 32.2 °F 60% 29.53 in 10.0 mi SSE 10.4 mph - N/A   Mostly Cloudy
10:35 PM 45.3 °F 40.1 °F 32.4 °F 61% 29.52 in 10.0 mi SE 10.4 mph - N/A   Mostly Cloudy
10:55 PM 46.2 °F 41.7 °F 32.9 °F 60% 29.51 in 10.0 mi SSE 9.2 mph 16.1 mph N/A   Mostly Cloudy
11:15 PM 46.2 °F 42.2 °F 33.1 °F 60% 29.50 in 10.0 mi SSE 8.1 mph - N/A   Mostly Cloudy
11:35 PM 46.8 °F - 33.3 °F 59% 29.49 in 10.0 mi SSE 9.2 mph - N/A   Mostly Cloudy
11:55 PM 49.1 °F - 35.4 °F 59% 29.48 in 10.0 mi SSE 9.2 mph - N/A   Mostly Cloudy